SCP
0 0 0 -0 -0 -0 0 0 -0 -0 -0 -0 -0 0 0 0 0 0 0 0 0 0 0 0 0 0 0 0 0 1 1 1 1 1 2 1 1 0 0 0 0 0 0 0
0 0 0 -0 -0 0 0 0 0 0 0 0 0 0 0 0 0 0 0 0 0 0 -0 0 0 0 0 0 0 0 1 1 1 3 3 1 0 0 0 0 0 0 0 0
0 -0 -0 0 0 0 0 0 0 0 0 0 0 0 0 0 0 0 0 0 0 0 0 -0 -0 -0 0 0 0 0 0 0 2 3 1 0 0 0 0 0 0 0 0 0
0 -0 0 0 0 0 0 0 0 0 0 0 0 0 0 0 0 0 -0 -0 0 0 0 0 0 0 0 0 0 0 0 0 2 2 1 0 0 0 0 0 0 0 0 0
0 0 0 0 0 0 0 0 0 0 0 0 0 0 -0 0 0 -0 -0 0 0 0 0 0 0 0 0 0 0 0 1 2 2 1 0 0 0 0 0 0 0 0 0 0
0 0 0 0 0 0 0 0 0 0 0 -0 0 0 0 0 0 -0 0 0 0 0 0 0 0 0 0 0 0 1 1 2 2 1 0 0 0 0 0 0 0 0 0 0
0 0 0 0 0 0 0 0 0 0 0 -0 -0 0 -0 -0 0 0 0 0 0 0 0 0 0 0 0 0 0 1 2 2 1 0 0 0 0 0 0 0 0 0 0 0
0 0 0 -0 0 0 0 0 0 -0 -0 -0 -0 -0 -0 -0 -0 -0 -0 0 0 0 0 0 0 0 0 0 1 2 2 1 0 0 0 0 0 0 0 0 0 0 0 0
0 0 0 0 0 0 0 0 0 -0 -0 -0 -0 -0 -0 -0 0 0 0 0 0 0 0 0 0 0 0 1 1 2 1 0 0 0 0 0 0 0 0 0 0 0 0 0
0 0 0 0 0 0 0 0 -0 -0 -0 -0 -0 -0 0 0 0 0 0 0 0 0 0 0 0 0 0 0 0 0 0 0 0 0 0 0 0 0 0 0 0 0 0 0
0 0 -0 0 0 0 0 -0 -0 -0 -0 -0 -0 0 0 0 0 0 0 0 0 0 0 0 0 0 0 0 0 0 0 0 0 0 0 0 0 0 0 0 0 0 0 0
0 -0 0 0 0 0 0 -0 -0 -0 0 -0 -0 -0 -0 0 0 -0 0 0 0 0 0 0 0 0 0 0 0 0 0 0 0 0 0 0 0 0 0 0 0 0 0 0
0 0 0 0 0 0 0 -0 -0 -0 0 0 -0 -0 -0 -0 0 0 0 0 0 0 0 0 0 0 0 0 0 0 0 0 0 0 0 0 0 0 0 0 0 0 0 0
-0 -0 -0 -0 0 -0 0 -0 -0 0 0 -0 -0 -0 -0 -0 -0 -0 0 -0 -0 0 0 0 0 0 0 0 0 0 0 0 0 0 0 0 0 0 0 0 0 0 0 0
-0 -0 -0 0 0 -0 0 -0 -0 -0 -0 -0 0 -0 -0 0 -0 0 -0 0 0 0 0 0 0 0 0 0 0 0 0 0 0 0 0 0 0 0 0 0 0 0 0 0
0 -0 0 0 0 -0 -0 -0 -0 -0 -0 -0 -0 -0 -0 -0 -0 0 0 0 0 0 0 0 0 0 0 0 0 0 0 0 0 0 0 0 0 0 0 0 0 0 0 0
0 -0 -0 0 0 -0 -0 -0 -0 -0 -0 -0 0 0 0 0 0 0 0 0 0 0 0 0 0 0 0 0 0 0 0 0 0 0 0 0 0 0 0 0 0 0 0 0
-0 -0 0 0 0 -0 -0 -0 -0 0 -0 0 0 0 0 0 0 0 0 0 0 0 0 0 0 0 0 0 0 0 0 0 0 0 0 0 0 0 0 0 0 0 0 0
-0 0 0 0 0 -0 -0 -0 0 0 -0 0 0 0 0 0 0 0 0 0 0 0 0 0 0 0 0 0 0 0 0 0 0 0 0 0 0 0 0 0 0 0 0 0
-0 -0 0 0 0 -0 -0 -0 0 0 -0 -0 -0 0 0 0 0 0 0 0 0 0 0 0 0 0 0 0 0 0 0 0 0 0 0 0 0 0 0 0 0 0 0 0
-0 -0 0 0 0 -0 -0 0 0 0 0 -0 -0 0 0 0 0 0 0 0 0 0 0 0 0 0 0 0 0 0 0 0 0 0 0 0 0 0 0 0 0 0 0 0
-0 -0 0 0 0 -0 0 -0 -0 0 0 0 0 0 0 0 0 0 0 0 0 0 0 0 0 0 0 0 0 0 0 0 0 0 0 0 0 0 0 0 0 0 0 0
-0 -0 -0 0 0 0 0 0 -0 -0 0 0 0 0 0 0 0 0 0 0 0 0 0 0 0 0 0 0 0 0 0 0 0 0 0 0 0 0 0 0 0 0 0 0
-0 -0 -0 -0 -0 -0 0 0 0 0 0 0 0 0 0 0 0 0 0 0 0 0 0 0 0 0 0 0 0 0 0 0 0 0 0 0 0 0 0 -0 -0 0 0 0
-0 -0 -0 -0 -0 -0 -0 0 -0 -0 0 0 0 0 0 0 0 0 0 0 0 0 0 0 0 0 0 0 0 0 0 0 0 0 0 0 0 0 0 -0 0 0 0 0
-0 -0 0 -0 -0 -0 -0 -0 0 0 0 0 0 0 0 0 0 0 0 0 0 0 0 0 0 0 0 0 0 0 0 0 0 0 0 0 0 0 0 0 0 0 0 0
0 -0 0 -0 -0 -0 -0 -0 -0 0 0 0 0 0 0 0 0 0 0 0 0 0 0 0 0 0 0 0 0 0 0 0 0 0 0 0 0 0 0 0 0 0 0 0
Wind_Speed_500mb
45 48 51 57 59 52 41 40 19 41 50 54 51 48 47 63 62 56 61 70 71 71 69 59 50 43 34 29 20 18 39 49 50 42 52 57 58 54 49 58 73 74 80 74
48 47 49 53 52 35 26 29 38 45 60 56 47 55 53 54 60 69 70 78 81 80 73 65 57 49 39 33 26 17 35 49 52 57 65 71 60 42 27 73 72 94 77 69
39 39 49 31 6 18 29 31 23 37 65 57 49 43 49 65 73 73 74 75 76 72 67 63 57 49 42 35 31 22 35 52 60 66 64 64 68 49 44 62 86 102 93 87
29 42 31 30 24 6 21 33 51 54 55 49 49 62 80 83 90 93 92 90 87 78 67 62 57 51 43 39 36 28 40 55 67 72 68 68 53 53 62 80 91 90 94 88
11 24 45 27 9 7 19 52 40 30 34 43 67 73 81 73 75 74 69 66 73 78 77 65 56 46 41 41 38 35 46 62 77 76 78 78 69 73 92 93 87 77 92 91
24 27 23 20 25 46 40 39 8 42 47 50 50 33 45 57 52 56 55 56 44 46 65 76 69 57 50 47 40 44 55 69 80 84 91 96 94 102 98 86 78 89 87 82
23 23 29 22 42 48 14 32 70 74 67 66 42 50 96 102 97 86 70 71 62 47 52 62 62 57 54 45 45 52 63 85 80 98 88 104 111 113 104 99 92 89 87 80
15 30 19 54 33 14 26 60 77 86 82 79 86 95 88 84 70 46 40 42 48 37 38 45 52 53 51 46 48 54 83 86 96 99 114 116 119 116 110 98 102 100 96 85
14 20 57 63 39 34 64 67 82 86 93 90 90 89 83 58 25 6 29 36 45 37 32 38 46 52 47 48 48 85 93 90 101 107 119 121 125 121 91 108 114 108 95 79
30 23 41 51 47 63 69 74 90 89 88 85 81 79 28 16 12 20 25 26 27 28 30 34 41 43 47 57 85 88 98 101 100 112 118 120 124 120 122 119 115 106 96 93
33 43 45 38 56 66 77 88 81 88 84 80 58 25 28 26 29 29 29 29 28 36 37 41 59 72 83 94 93 94 94 97 104 109 111 111 118 127 125 119 113 111 103 97
26 27 20 48 69 71 72 82 85 79 78 63 42 23 26 33 31 34 37 38 37 37 41 49 69 81 89 86 84 101 110 113 107 106 107 118 119 109 107 114 106 98 86 81
15 43 50 54 64 63 67 78 77 67 59 51 35 33 30 34 39 44 40 37 37 41 47 51 62 80 88 86 76 82 110 115 117 116 117 126 127 129 113 92 92 77 79 72
28 43 30 43 49 67 66 73 67 53 47 41 30 31 30 35 41 42 42 39 40 43 47 53 64 72 81 77 72 86 101 106 116 126 122 127 131 124 116 100 94 81 69 75
41 26 32 39 49 61 67 73 69 60 53 45 36 28 36 41 48 54 50 46 46 47 48 54 64 69 79 87 96 100 122 118 116 122 122 120 129 117 108 106 99 96 85 70
39 32 42 36 50 57 64 72 65 59 49 41 36 35 34 45 48 51 54 53 56 60 60 61 70 72 74 89 104 108 113 116 122 119 117 113 127 127 116 109 104 95 78 78
38 37 44 46 51 55 58 61 54 46 40 38 42 31 34 40 48 52 50 49 55 64 64 70 76 80 86 93 108 113 120 125 121 127 120 124 118 111 111 108 96 83 76 70
24 28 29 28 38 47 51 55 50 39 40 34 41 47 44 46 51 53 54 51 53 54 59 70 79 83 91 102 109 118 125 128 126 120 108 102 102 104 104 90 79 86 72 68
28 30 27 26 33 38 43 49 48 40 39 40 44 51 51 49 50 53 56 61 61 65 65 69 84 96 106 114 118 117 121 117 105 102 100 106 101 83 92 91 85 75 68 59
24 28 24 23 28 35 41 44 42 44 51 44 47 56 59 57 58 64 68 72 65 61 59 67 72 83 89 93 95 98 101 101 104 103 100 96 93 94 86 74 80 69 58 52
21 25 20 22 28 29 36 39 41 41 43 50 55 54 58 60 64 63 66 64 49 51 54 55 61 67 70 71 72 75 83 89 92 95 95 94 92 87 80 69 62 58 55 52
17 20 16 19 28 28 29 33 32 35 38 39 41 47 55 58 57 59 56 57 52 51 49 55 60 60 58 57 64 72 77 80 83 83 85 83 77 69 62 59 58 54 53 51
12 17 14 16 24 31 28 29 31 28 31 37 38 44 47 48 49 51 51 44 40 40 47 54 51 48 49 50 52 56 63 61 65 65 60 58 57 56 56 53 52 52 52 50
8 16 17 15 15 23 29 31 28 33 33 35 35 42 50 51 53 48 45 42 41 45 47 43 38 36 39 43 47 51 51 51 52 52 53 55 52 51 51 53 51 49 48 47
8 10 16 13 12 16 19 22 24 25 27 29 27 33 41 48 53 50 49 44 41 45 45 38 35 31 33 38 41 44 45 48 49 51 51 48 49 48 49 46 46 48 49 46
8 11 12 12 13 14 18 17 22 24 21 23 24 26 34 40 43 45 42 43 43 44 38 33 32 33 35 35 38 40 39 47 48 45 43 43 42 43 45 43 44 44 43 42
10 10 8 10 12 15 14 17 18 19 21 20 21 25 25 25 25 25 32 35 37 38 33 30 30 31 34 35 34 33 36 41 37 39 39 39 41 40 41 41 42 43 42 42
Wind_Direction_500mb
288 288 288 285 287 295 289 276 273 287 290 293 305 310 305 300 294 286 278 268 266 269 272 272 271 275 278 273 277 262 216 212 213 208 189 195 190 192 204 219 196 199 181 168
287 286 290 304 303 294 291 286 284 286 289 290 309 299 295 288 280 274 269 269 266 264 263 262 263 261 265 264 264 258 217 210 203 198 194 199 195 191 224 208 210 176 155 154
289 302 308 291 356 300 285 290 279 280 290 301 294 292 295 291 283 278 275 270 265 262 257 256 249 251 254 258 256 251 215 205 203 195 200 186 196 201 223 204 179 160 161 161
287 305 296 326 3 315 250 267 284 291 287 290 293 296 284 281 278 274 270 266 257 252 247 249 243 248 249 249 248 239 204 200 200 201 198 203 203 186 207 183 175 166 161 155
286 301 291 292 22 315 283 288 286 290 292 287 293 294 282 272 265 262 265 261 253 246 241 240 234 235 236 238 235 220 204 194 194 193 195 190 187 189 180 174 158 173 160 156
296 288 300 327 321 322 323 291 88 318 304 301 303 292 285 299 280 264 250 250 259 242 232 228 229 231 234 229 226 209 195 183 190 191 190 184 183 176 173 171 173 162 153 148
291 285 289 321 344 334 308 320 310 308 304 299 293 279 284 290 287 280 258 247 239 244 223 218 220 220 217 213 216 194 187 182 185 183 191 178 168 173 165 172 160 154 148 144
301 303 289 337 343 335 305 304 303 306 306 302 298 298 298 299 299 291 232 213 202 202 198 200 200 200 203 204 197 188 183 184 176 179 173 167 172 169 167 164 157 154 148 141
287 282 300 315 325 320 320 304 308 308 309 308 303 303 304 305 337 117 164 182 191 205 202 193 190 191 193 183 197 181 173 180 174 171 171 172 173 167 165 165 158 150 143 139
291 272 312 321 325 326 317 314 315 318 316 315 309 315 351 13 48 93 123 147 168 177 173 172 179 184 192 188 175 179 166 166 173 169 165 166 170 171 164 164 158 154 146 144
284 298 324 312 325 319 321 326 328 333 328 327 335 22 32 60 81 94 107 120 125 139 155 149 143 156 162 167 168 164 164 164 158 160 157 154 159 160 161 163 164 158 153 151
302 327 307 308 317 324 327 330 335 336 342 359 22 36 66 72 83 108 119 134 142 146 142 145 149 139 150 164 168 159 153 154 150 148 147 152 154 147 151 159 159 156 151 147
289 307 312 314 318 328 336 344 345 351 4 12 27 51 75 91 100 111 126 135 145 146 151 154 156 156 150 152 156 158 157 153 156 156 153 157 159 159 150 145 148 147 152 148
325 326 327 332 326 340 354 358 1 11 27 33 41 62 85 102 108 118 118 138 148 150 152 155 156 157 157 165 172 169 164 166 164 165 159 156 158 155 147 144 143 141 140 140
337 346 335 330 337 351 4 8 6 9 19 31 47 72 91 97 101 106 123 134 142 143 149 155 153 145 154 157 164 166 161 156 156 156 155 149 149 143 142 142 138 134 135 132
335 342 345 346 347 358 6 7 5 7 19 34 46 77 91 106 114 120 121 127 128 123 131 144 141 148 153 151 141 142 156 157 157 158 153 140 138 142 143 143 140 136 137 138
345 345 347 349 352 1 7 9 16 19 26 41 57 77 100 107 110 113 122 128 127 128 135 142 141 148 153 155 148 140 139 149 154 144 140 144 143 138 142 142 139 141 140 142
348 345 349 347 353 360 11 17 25 31 39 47 70 84 91 100 103 112 119 127 126 124 133 137 140 145 145 149 146 141 142 142 143 145 140 137 138 141 144 139 141 141 139 137
351 356 357 6 6 8 19 26 30 46 54 63 72 78 90 97 105 112 120 120 116 115 119 133 138 141 139 141 138 136 139 136 133 134 139 143 139 138 142 144 145 142 141 135
354 2 9 18 21 22 29 41 50 55 59 65 80 86 89 93 104 110 110 100 102 105 113 120 124 128 133 138 141 139 142 142 141 141 141 139 141 144 142 142 144 138 138 142
353 4 22 32 36 32 40 44 51 63 64 66 71 77 85 94 96 98 96 89 95 109 111 109 116 122 129 135 137 138 142 143 145 147 147 144 143 144 143 140 141 144 146 143
355 11 32 47 47 40 42 50 60 60 67 68 72 82 87 86 92 96 91 93 102 106 108 111 118 123 128 138 139 142 146 147 144 143 145 145 145 141 142 146 148 148 145 144
15 24 58 64 61 58 53 58 59 72 79 75 84 86 90 91 93 94 95 97 108 114 115 118 121 123 121 119 125 132 138 135 141 142 141 143 144 146 147 146 147 148 147 144
41 42 60 59 73 64 64 61 69 68 82 86 92 95 94 97 99 98 94 93 98 112 117 121 127 131 126 121 127 132 136 138 139 142 144 145 147 147 148 148 148 146 145 146
77 53 47 54 66 67 78 75 79 67 78 91 96 110 116 107 103 104 105 106 111 111 111 116 126 132 129 126 132 137 140 143 145 146 143 146 148 150 149 149 149 152 153 156
80 80 83 71 65 93 93 97 79 78 82 84 103 118 111 115 118 114 110 115 115 112 110 108 109 112 117 125 132 137 143 153 148 147 150 147 152 153 151 152 156 157 158 161
57 90 93 77 94 93 104 113 106 87 80 85 107 137 142 139 135 134 132 123 121 117 113 119 122 124 129 131 137 142 153 153 154 157 157 155 157 157 158 160 163 163 166 168
Wind_Speed_850mb
45 48 51 57 59 52 41 40 19 41 50 54 51 48 47 63 62 56 61 70 71 71 69 59 50 43 34 29 20 18 39 49 50 42 52 57 58 54 49 58 73 74 80 74
48 47 49 53 52 35 26 29 38 45 60 56 47 55 53 54 60 69 70 78 81 80 73 65 57 49 39 33 26 17 35 49 52 57 65 71 60 42 27 73 72 94 77 69
39 39 49 31 6 18 29 31 23 37 65 57 49 43 49 65 73 73 74 75 76 72 67 63 57 49 42 35 31 22 35 52 60 66 64 64 68 49 44 62 86 102 93 87
29 42 31 30 24 6 21 33 51 54 55 49 49 62 80 83 90 93 92 90 87 78 67 62 57 51 43 39 36 28 40 55 67 72 68 68 53 53 62 80 91 90 94 88
11 24 45 27 9 7 19 52 40 30 34 43 67 73 81 73 75 74 69 66 73 78 77 65 56 46 41 41 38 35 46 62 77 76 78 78 69 73 92 93 87 77 92 91
24 27 23 20 25 46 40 39 8 42 47 50 50 33 45 57 52 56 55 56 44 46 65 76 69 57 50 47 40 44 55 69 80 84 91 96 94 102 98 86 78 89 87 82
23 23 29 22 42 48 14 32 70 74 67 66 42 50 96 102 97 86 70 71 62 47 52 62 62 57 54 45 45 52 63 85 80 98 88 104 111 113 104 99 92 89 87 80
15 30 19 54 33 14 26 60 77 86 82 79 86 95 88 84 70 46 40 42 48 37 38 45 52 53 51 46 48 54 83 86 96 99 114 116 119 116 110 98 102 100 96 85
14 20 57 63 39 34 64 67 82 86 93 90 90 89 83 58 25 6 29 36 45 37 32 38 46 52 47 48 48 85 93 90 101 107 119 121 125 121 91 108 114 108 95 79
30 23 41 51 47 63 69 74 90 89 88 85 81 79 28 16 12 20 25 26 27 28 30 34 41 43 47 57 85 88 98 101 100 112 118 120 124 120 122 119 115 106 96 93
33 43 45 38 56 66 77 88 81 88 84 80 58 25 28 26 29 29 29 29 28 36 37 41 59 72 83 94 93 94 94 97 104 109 111 111 118 127 125 119 113 111 103 97
26 27 20 48 69 71 72 82 85 79 78 63 42 23 26 33 31 34 37 38 37 37 41 49 69 81 89 86 84 101 110 113 107 106 107 118 119 109 107 114 106 98 86 81
15 43 50 54 64 63 67 78 77 67 59 51 35 33 30 34 39 44 40 37 37 41 47 51 62 80 88 86 76 82 110 115 117 116 117 126 127 129 113 92 92 77 79 72
28 43 30 43 49 67 66 73 67 53 47 41 30 31 30 35 41 42 42 39 40 43 47 53 64 72 81 77 72 86 101 106 116 126 122 127 131 124 116 100 94 81 69 75
41 26 32 39 49 61 67 73 69 60 53 45 36 28 36 41 48 54 50 46 46 47 48 54 64 69 79 87 96 100 122 118 116 122 122 120 129 117 108 106 99 96 85 70
39 32 42 36 50 57 64 72 65 59 49 41 36 35 34 45 48 51 54 53 56 60 60 61 70 72 74 89 104 108 113 116 122 119 117 113 127 127 116 109 104 95 78 78
38 37 44 46 51 55 58 61 54 46 40 38 42 31 34 40 48 52 50 49 55 64 64 70 76 80 86 93 108 113 120 125 121 127 120 124 118 111 111 108 96 83 76 70
24 28 29 28 38 47 51 55 50 39 40 34 41 47 44 46 51 53 54 51 53 54 59 70 79 83 91 102 109 118 125 128 126 120 108 102 102 104 104 90 79 86 72 68
28 30 27 26 33 38 43 49 48 40 39 40 44 51 51 49 50 53 56 61 61 65 65 69 84 96 106 114 118 117 121 117 105 102 100 106 101 83 92 91 85 75 68 59
24 28 24 23 28 35 41 44 42 44 51 44 47 56 59 57 58 64 68 72 65 61 59 67 72 83 89 93 95 98 101 101 104 103 100 96 93 94 86 74 80 69 58 52
21 25 20 22 28 29 36 39 41 41 43 50 55 54 58 60 64 63 66 64 49 51 54 55 61 67 70 71 72 75 83 89 92 95 95 94 92 87 80 69 62 58 55 52
17 20 16 19 28 28 29 33 32 35 38 39 41 47 55 58 57 59 56 57 52 51 49 55 60 60 58 57 64 72 77 80 83 83 85 83 77 69 62 59 58 54 53 51
12 17 14 16 24 31 28 29 31 28 31 37 38 44 47 48 49 51 51 44 40 40 47 54 51 48 49 50 52 56 63 61 65 65 60 58 57 56 56 53 52 52 52 50
8 16 17 15 15 23 29 31 28 33 33 35 35 42 50 51 53 48 45 42 41 45 47 43 38 36 39 43 47 51 51 51 52 52 53 55 52 51 51 53 51 49 48 47
8 10 16 13 12 16 19 22 24 25 27 29 27 33 41 48 53 50 49 44 41 45 45 38 35 31 33 38 41 44 45 48 49 51 51 48 49 48 49 46 46 48 49 46
8 11 12 12 13 14 18 17 22 24 21 23 24 26 34 40 43 45 42 43 43 44 38 33 32 33 35 35 38 40 39 47 48 45 43 43 42 43 45 43 44 44 43 42
10 10 8 10 12 15 14 17 18 19 21 20 21 25 25 25 25 25 32 35 37 38 33 30 30 31 34 35 34 33 36 41 37 39 39 39 41 40 41 41 42 43 42 42
Wind_Direction_850mb
288 288 288 285 287 295 289 276 273 287 290 293 305 310 305 300 294 286 278 268 266 269 272 272 271 275 278 273 277 262 216 212 213 208 189 195 190 192 204 219 196 199 181 168
287 286 290 304 303 294 291 286 284 286 289 290 309 299 295 288 280 274 269 269 266 264 263 262 263 261 265 264 264 258 217 210 203 198 194 199 195 191 224 208 210 176 155 154
289 302 308 291 356 300 285 290 279 280 290 301 294 292 295 291 283 278 275 270 265 262 257 256 249 251 254 258 256 251 215 205 203 195 200 186 196 201 223 204 179 160 161 161
287 305 296 326 3 315 250 267 284 291 287 290 293 296 284 281 278 274 270 266 257 252 247 249 243 248 249 249 248 239 204 200 200 201 198 203 203 186 207 183 175 166 161 155
286 301 291 292 22 315 283 288 286 290 292 287 293 294 282 272 265 262 265 261 253 246 241 240 234 235 236 238 235 220 204 194 194 193 195 190 187 189 180 174 158 173 160 156
296 288 300 327 321 322 323 291 88 318 304 301 303 292 285 299 280 264 250 250 259 242 232 228 229 231 234 229 226 209 195 183 190 191 190 184 183 176 173 171 173 162 153 148
291 285 289 321 344 334 308 320 310 308 304 299 293 279 284 290 287 280 258 247 239 244 223 218 220 220 217 213 216 194 187 182 185 183 191 178 168 173 165 172 160 154 148 144
301 303 289 337 343 335 305 304 303 306 306 302 298 298 298 299 299 291 232 213 202 202 198 200 200 200 203 204 197 188 183 184 176 179 173 167 172 169 167 164 157 154 148 141
287 282 300 315 325 320 320 304 308 308 309 308 303 303 304 305 337 117 164 182 191 205 202 193 190 191 193 183 197 181 173 180 174 171 171 172 173 167 165 165 158 150 143 139
291 272 312 321 325 326 317 314 315 318 316 315 309 315 351 13 48 93 123 147 168 177 173 172 179 184 192 188 175 179 166 166 173 169 165 166 170 171 164 164 158 154 146 144
284 298 324 312 325 319 321 326 328 333 328 327 335 22 32 60 81 94 107 120 125 139 155 149 143 156 162 167 168 164 164 164 158 160 157 154 159 160 161 163 164 158 153 151
302 327 307 308 317 324 327 330 335 336 342 359 22 36 66 72 83 108 119 134 142 146 142 145 149 139 150 164 168 159 153 154 150 148 147 152 154 147 151 159 159 156 151 147
289 307 312 314 318 328 336 344 345 351 4 12 27 51 75 91 100 111 126 135 145 146 151 154 156 156 150 152 156 158 157 153 156 156 153 157 159 159 150 145 148 147 152 148
325 326 327 332 326 340 354 358 1 11 27 33 41 62 85 102 108 118 118 138 148 150 152 155 156 157 157 165 172 169 164 166 164 165 159 156 158 155 147 144 143 141 140 140
337 346 335 330 337 351 4 8 6 9 19 31 47 72 91 97 101 106 123 134 142 143 149 155 153 145 154 157 164 166 161 156 156 156 155 149 149 143 142 142 138 134 135 132
335 342 345 346 347 358 6 7 5 7 19 34 46 77 91 106 114 120 121 127 128 123 131 144 141 148 153 151 141 142 156 157 157 158 153 140 138 142 143 143 140 136 137 138
345 345 347 349 352 1 7 9 16 19 26 41 57 77 100 107 110 113 122 128 127 128 135 142 141 148 153 155 148 140 139 149 154 144 140 144 143 138 142 142 139 141 140 142
348 345 349 347 353 360 11 17 25 31 39 47 70 84 91 100 103 112 119 127 126 124 133 137 140 145 145 149 146 141 142 142 143 145 140 137 138 141 144 139 141 141 139 137
351 356 357 6 6 8 19 26 30 46 54 63 72 78 90 97 105 112 120 120 116 115 119 133 138 141 139 141 138 136 139 136 133 134 139 143 139 138 142 144 145 142 141 135
354 2 9 18 21 22 29 41 50 55 59 65 80 86 89 93 104 110 110 100 102 105 113 120 124 128 133 138 141 139 142 142 141 141 141 139 141 144 142 142 144 138 138 142
353 4 22 32 36 32 40 44 51 63 64 66 71 77 85 94 96 98 96 89 95 109 111 109 116 122 129 135 137 138 142 143 145 147 147 144 143 144 143 140 141 144 146 143
355 11 32 47 47 40 42 50 60 60 67 68 72 82 87 86 92 96 91 93 102 106 108 111 118 123 128 138 139 142 146 147 144 143 145 145 145 141 142 146 148 148 145 144
15 24 58 64 61 58 53 58 59 72 79 75 84 86 90 91 93 94 95 97 108 114 115 118 121 123 121 119 125 132 138 135 141 142 141 143 144 146 147 146 147 148 147 144
41 42 60 59 73 64 64 61 69 68 82 86 92 95 94 97 99 98 94 93 98 112 117 121 127 131 126 121 127 132 136 138 139 142 144 145 147 147 148 148 148 146 145 146
77 53 47 54 66 67 78 75 79 67 78 91 96 110 116 107 103 104 105 106 111 111 111 116 126 132 129 126 132 137 140 143 145 146 143 146 148 150 149 149 149 152 153 156
80 80 83 71 65 93 93 97 79 78 82 84 103 118 111 115 118 114 110 115 115 112 110 108 109 112 117 125 132 137 143 153 148 147 150 147 152 153 151 152 156 157 158 161
57 90 93 77 94 93 104 113 106 87 80 85 107 137 142 139 135 134 132 123 121 117 113 119 122 124 129 131 137 142 153 153 154 157 157 155 157 157 158 160 163 163 166 168